QFA153 EDDK-LIMC

Flight info

Callsign QFA153
Flight time 1h 10m
Altitude 33000
Route KUMIK1B KUMIK Y854 BOMBI/N0462F320 DCT GIGET DCT ABUKA DCT KRH DCT NATOR/N0458F330 DCT DITON DCT BASGO/N0460F290 Z424 AKASU/N0392F190 Z424 RIXUV
Aircraft B738/M-SDE2E3FGHIRWXY/LB1

Departure

Time 2026-04-20 14:58
Airport Cologne Bonn Airport (EDDK)

Arrival

Time 2026-04-20 16:09
Airport Milan Malpensa International Airport (LIMC)
Time Latitude Longitude Altitude Speed Heading
2026-04-20 14:22 50.88153 7.12001 221 ft 0 kts 216°
2026-04-20 14:40 50.88154 7.12002 221 ft 1 kts 217°
2026-04-20 14:40 50.88163 7.12013 221 ft 0 kts 216°
2026-04-20 14:40 50.88174 7.12024 222 ft 2 kts 204°
2026-04-20 14:40 50.88188 7.12031 222 ft 2 kts 191°
2026-04-20 14:41 50.88203 7.12033 221 ft 2 kts 176°
2026-04-20 14:41 50.88217 7.12029 221 ft 2 kts 162°
2026-04-20 14:41 50.88231 7.12019 221 ft 2 kts 148°
2026-04-20 14:41 50.88243 7.12005 221 ft 2 kts 134°
2026-04-20 14:42 50.88248 7.11995 221 ft 1 kts 126°
2026-04-20 14:42 50.88251 7.11989 221 ft 0 kts 125°
2026-04-20 14:45 50.88250 7.11991 221 ft 0 kts 125°
2026-04-20 14:45 50.88250 7.11993 221 ft 1 kts 125°
2026-04-20 14:45 50.88232 7.12031 221 ft 5 kts 125°
2026-04-20 14:45 50.88197 7.12108 222 ft 11 kts 126°
2026-04-20 14:46 50.88145 7.12221 224 ft 13 kts 128°
2026-04-20 14:46 50.88092 7.12336 225 ft 12 kts 124°
2026-04-20 14:46 50.88049 7.12440 227 ft 10 kts 121°
2026-04-20 14:46 50.88015 7.12533 228 ft 9 kts 119°
2026-04-20 14:47 50.87986 7.12616 229 ft 7 kts 123°
2026-04-20 14:47 50.87941 7.12633 229 ft 7 kts 190°
2026-04-20 14:47 50.87880 7.12607 229 ft 11 kts 197°
2026-04-20 14:48 50.87759 7.12709 230 ft 8 kts 140°
2026-04-20 14:48 50.87706 7.12786 231 ft 12 kts 136°
2026-04-20 14:48 50.87640 7.12882 232 ft 14 kts 137°
2026-04-20 14:48 50.87561 7.12997 233 ft 16 kts 137°
2026-04-20 14:49 50.87476 7.13121 235 ft 16 kts 137°
2026-04-20 14:49 50.87392 7.13242 236 ft 16 kts 137°
2026-04-20 14:49 50.87311 7.13361 238 ft 15 kts 137°
2026-04-20 14:49 50.87229 7.13478 240 ft 15 kts 137°
2026-04-20 14:50 50.87157 7.13585 242 ft 13 kts 137°
2026-04-20 14:50 50.87089 7.13679 244 ft 14 kts 138°
2026-04-20 14:50 50.87012 7.13793 247 ft 14 kts 136°
2026-04-20 14:50 50.86952 7.13880 249 ft 0 kts 137°
2026-04-20 14:51 50.86926 7.13918 250 ft 13 kts 138°
2026-04-20 14:51 50.86858 7.14015 252 ft 13 kts 136°
2026-04-20 14:51 50.86784 7.14115 255 ft 12 kts 153°
2026-04-20 14:52 50.86704 7.14177 258 ft 15 kts 137°
2026-04-20 14:52 50.86618 7.14301 262 ft 18 kts 139°
2026-04-20 14:52 50.86519 7.14446 265 ft 19 kts 137°
2026-04-20 14:52 50.86425 7.14582 269 ft 18 kts 136°
2026-04-20 14:53 50.86324 7.14729 272 ft 20 kts 139°
2026-04-20 14:53 50.86216 7.14885 275 ft 20 kts 136°
2026-04-20 14:53 50.86117 7.15028 277 ft 18 kts 137°
2026-04-20 14:53 50.86020 7.15171 280 ft 20 kts 138°
2026-04-20 14:54 50.85921 7.15312 282 ft 18 kts 137°
2026-04-20 14:54 50.85826 7.15451 285 ft 19 kts 137°
2026-04-20 14:54 50.85727 7.15593 288 ft 18 kts 137°
2026-04-20 14:54 50.85627 7.15739 291 ft 19 kts 137°
2026-04-20 14:55 50.85531 7.15877 295 ft 18 kts 137°
2026-04-20 14:55 50.85441 7.16006 298 ft 16 kts 137°
2026-04-20 14:55 50.85365 7.16129 301 ft 15 kts 124°
2026-04-20 14:55 50.85336 7.16283 304 ft 14 kts 88°
2026-04-20 14:56 50.85363 7.16410 307 ft 8 kts 54°
2026-04-20 14:56 50.85377 7.16439 307 ft 0 kts 48°
2026-04-20 14:57 50.85411 7.16482 308 ft 16 kts 30°
2026-04-20 14:57 50.85522 7.16511 308 ft 14 kts 349°
2026-04-20 14:57 50.85640 7.16394 305 ft 35 kts 316°
2026-04-20 14:57 50.85977 7.15904 295 ft 97 kts 317°
2026-04-20 14:58 50.86615 7.14983 275 ft 151 kts 316°
2026-04-20 14:58 50.87469 7.13753 448 ft 174 kts 317°
2026-04-20 14:58 50.88353 7.12527 841 ft 169 kts 318°
2026-04-20 14:58 50.89246 7.11313 1320 ft 168 kts 328°
2026-04-20 14:59 50.90345 7.10849 1794 ft 170 kts
2026-04-20 14:59 50.91435 7.11501 2277 ft 172 kts 31°
2026-04-20 14:59 50.92409 7.12602 2752 ft 173 kts 33°
2026-04-20 14:59 50.93376 7.13755 3232 ft 175 kts 40°
2026-04-20 15:00 50.94063 7.15339 3697 ft 180 kts 62°
2026-04-20 15:00 50.94577 7.17214 4085 ft 188 kts 62°
2026-04-20 15:00 50.95137 7.19103 4467 ft 194 kts 60°
2026-04-20 15:00 50.95757 7.21065 4831 ft 200 kts 60°
2026-04-20 15:01 50.96404 7.23094 5238 ft 217 kts 60°
2026-04-20 15:01 50.97122 7.25352 5613 ft 242 kts 62°
2026-04-20 15:01 50.97561 7.28024 5995 ft 266 kts 85°
2026-04-20 15:01 50.97412 7.30969 6389 ft 273 kts 96°
2026-04-20 15:02 50.97112 7.33960 6777 ft 275 kts 96°
2026-04-20 15:02 50.96856 7.36981 7155 ft 277 kts 94°
2026-04-20 15:02 50.96652 7.40028 7544 ft 279 kts 93°
2026-04-20 15:02 50.96477 7.43050 7931 ft 280 kts 92°
2026-04-20 15:03 50.96308 7.46133 8314 ft 281 kts 92°
2026-04-20 15:03 50.96139 7.49205 8696 ft 283 kts 93°
2026-04-20 15:03 50.95965 7.52341 9083 ft 285 kts 93°
2026-04-20 15:03 50.95790 7.55456 9465 ft 286 kts 93°
2026-04-20 15:04 50.95614 7.58581 9845 ft 288 kts 93°
2026-04-20 15:04 50.95437 7.61723 10228 ft 289 kts 93°
2026-04-20 15:04 50.95254 7.64928 10619 ft 291 kts 93°
2026-04-20 15:04 50.95068 7.68215 11053 ft 308 kts 94°
2026-04-20 15:05 50.94874 7.71609 11534 ft 322 kts 94°
2026-04-20 15:05 50.94664 7.75253 12019 ft 337 kts 94°
2026-04-20 15:05 50.94432 7.79032 12477 ft 352 kts 96°
2026-04-20 15:05 50.93881 7.82896 12890 ft 368 kts 110°
2026-04-20 15:06 50.92693 7.86554 13298 ft 384 kts 121°
2026-04-20 15:06 50.91207 7.90115 13948 ft 391 kts 124°
2026-04-20 15:06 50.89635 7.93651 14657 ft 396 kts 124°
2026-04-20 15:06 50.88039 7.97230 15334 ft 402 kts 124°
2026-04-20 15:07 50.86448 8.00844 16080 ft 406 kts 124°
2026-04-20 15:07 50.84688 8.04411 16739 ft 412 kts 130°
2026-04-20 15:07 50.82695 8.07618 17422 ft 416 kts 136°
2026-04-20 15:07 50.80453 8.10580 18068 ft 422 kts 142°
2026-04-20 15:08 50.78064 8.13270 18722 ft 426 kts 145°
2026-04-20 15:08 50.75568 8.15829 19522 ft 427 kts 147°
2026-04-20 15:08 50.73066 8.18298 20338 ft 427 kts 147°
2026-04-20 15:08 50.70557 8.20750 21034 ft 429 kts 146°
2026-04-20 15:09 50.68012 8.23238 21718 ft 431 kts 146°
2026-04-20 15:09 50.65488 8.25717 22415 ft 432 kts 146°
2026-04-20 15:09 50.62952 8.28219 23063 ft 434 kts 146°
2026-04-20 15:09 50.60380 8.30765 23731 ft 436 kts 145°
2026-04-20 15:10 50.57814 8.33311 24340 ft 438 kts 145°
2026-04-20 15:10 50.55226 8.35884 24703 ft 445 kts 145°
2026-04-20 15:10 50.52605 8.38492 24954 ft 454 kts 145°
2026-04-20 15:10 50.49899 8.41184 25158 ft 465 kts 145°
2026-04-20 15:11 50.47170 8.43896 25762 ft 464 kts 146°
2026-04-20 15:11 50.44420 8.46631 25841 ft 478 kts 147°
2026-04-20 15:11 50.41591 8.49434 25998 ft 489 kts 148°
2026-04-20 15:11 50.38687 8.52307 26305 ft 495 kts 148°
2026-04-20 15:12 50.35778 8.55119 26930 ft 493 kts 150°
2026-04-20 15:12 50.32817 8.57764 27452 ft 493 kts 153°
2026-04-20 15:12 50.29773 8.60326 28001 ft 493 kts 154°
2026-04-20 15:12 50.26742 8.62806 28485 ft 494 kts 155°
2026-04-20 15:13 50.23747 8.65231 28985 ft 494 kts 156°
2026-04-20 15:13 50.20637 8.67750 29459 ft 494 kts 156°
2026-04-20 15:13 50.17615 8.70204 29855 ft 496 kts 156°
2026-04-20 15:13 50.14523 8.72728 30176 ft 499 kts 157°
2026-04-20 15:14 50.11446 8.75232 30554 ft 500 kts 158°
2026-04-20 15:14 50.08296 8.77441 31002 ft 495 kts 164°
2026-04-20 15:14 50.05069 8.79153 31423 ft 489 kts 170°
2026-04-20 15:14 50.01801 8.80350 31798 ft 484 kts 176°
2026-04-20 15:15 49.98488 8.81037 32172 ft 479 kts 182°
2026-04-20 15:15 49.95176 8.81204 32536 ft 473 kts 188°
2026-04-20 15:15 49.91930 8.80856 32928 ft 467 kts 194°
2026-04-20 15:15 49.88750 8.80010 33108 ft 464 kts 200°
2026-04-20 15:16 49.85633 8.78777 33123 ft 462 kts 203°
2026-04-20 15:16 49.79422 8.76165 33113 ft 459 kts 201°
2026-04-20 15:17 49.73180 8.73993 33112 ft 461 kts 199°
2026-04-20 15:17 49.66795 8.72236 33114 ft 465 kts 197°
2026-04-20 15:18 49.60396 8.70763 33116 ft 467 kts 195°
2026-04-20 15:18 49.53970 8.69415 33106 ft 467 kts 195°
2026-04-20 15:19 49.47519 8.68113 33110 ft 468 kts 195°
2026-04-20 15:19 49.41046 8.66811 33110 ft 468 kts 195°
2026-04-20 15:20 49.34578 8.65507 33109 ft 467 kts 195°
2026-04-20 15:20 49.28162 8.64213 33105 ft 468 kts 195°
2026-04-20 15:21 49.21704 8.62915 33098 ft 467 kts 196°
2026-04-20 15:21 49.15245 8.61616 33101 ft 469 kts 196°
2026-04-20 15:22 49.08800 8.60326 33096 ft 468 kts 195°
2026-04-20 15:22 49.02326 8.59034 33090 ft 469 kts 196°
2026-04-20 15:23 48.95869 8.57614 33080 ft 464 kts 199°
2026-04-20 15:23 48.89589 8.55627 33072 ft 463 kts 201°
2026-04-20 15:24 48.83347 8.53479 33072 ft 462 kts 201°
2026-04-20 15:24 48.77033 8.51332 33065 ft 463 kts 201°
2026-04-20 15:25 48.70718 8.49242 33064 ft 463 kts 200°
2026-04-20 15:25 48.64453 8.47206 33058 ft 463 kts 200°
2026-04-20 15:26 48.58130 8.45173 33053 ft 461 kts 200°
2026-04-20 15:26 48.51856 8.43167 33056 ft 463 kts 200°
2026-04-20 15:27 48.45591 8.41172 33051 ft 464 kts 200°
2026-04-20 15:27 48.39275 8.39165 33051 ft 462 kts 200°
2026-04-20 15:28 48.32977 8.37176 33053 ft 462 kts 200°
2026-04-20 15:28 48.26677 8.35182 33056 ft 463 kts 199°
2026-04-20 15:29 48.20354 8.33209 33051 ft 465 kts 198°
2026-04-20 15:29 48.13918 8.32003 33052 ft 471 kts 189°
2026-04-20 15:30 48.07278 8.31899 33046 ft 476 kts 185°
2026-04-20 15:30 48.00700 8.32121 33040 ft 475 kts 185°
2026-04-20 15:31 47.94062 8.32344 33043 ft 475 kts 185°
2026-04-20 15:31 47.87470 8.32508 33049 ft 475 kts 186°
2026-04-20 15:32 47.80844 8.32625 33040 ft 475 kts 186°
2026-04-20 15:32 47.74204 8.32724 33037 ft 475 kts 186°
2026-04-20 15:33 47.67608 8.32818 33046 ft 475 kts 186°
2026-04-20 15:33 47.60964 8.32908 33046 ft 474 kts 186°
2026-04-20 15:34 47.54375 8.33001 33047 ft 473 kts 186°
2026-04-20 15:34 47.47798 8.33092 33042 ft 474 kts 186°
2026-04-20 15:35 47.41185 8.33183 33037 ft 473 kts 186°
2026-04-20 15:35 47.34575 8.33273 33035 ft 477 kts 186°
2026-04-20 15:36 47.27909 8.33423 33033 ft 476 kts 184°
2026-04-20 15:36 47.21311 8.34190 33041 ft 480 kts 181°
2026-04-20 15:37 47.14634 8.35242 33036 ft 481 kts 180°
2026-04-20 15:37 47.07964 8.36281 33031 ft 480 kts 181°
2026-04-20 15:38 47.01295 8.37258 33041 ft 480 kts 181°
2026-04-20 15:38 46.94660 8.38187 33038 ft 478 kts 181°
2026-04-20 15:39 46.88048 8.39086 32924 ft 478 kts 182°
2026-04-20 15:39 46.84734 8.39537 32613 ft 478 kts 181°
2026-04-20 15:39 46.81443 8.39981 32244 ft 479 kts 182°
2026-04-20 15:39 46.78092 8.40433 31868 ft 478 kts 182°
2026-04-20 15:40 46.74789 8.40877 31473 ft 480 kts 181°
2026-04-20 15:40 46.71437 8.41326 31014 ft 480 kts 181°
2026-04-20 15:40 46.68132 8.41774 30549 ft 474 kts 181°
2026-04-20 15:40 46.64907 8.42214 30063 ft 468 kts 181°
2026-04-20 15:41 46.61688 8.42651 29565 ft 464 kts 181°
2026-04-20 15:41 46.58462 8.43086 29069 ft 462 kts 182°
2026-04-20 15:41 46.55316 8.43506 28579 ft 460 kts 181°
2026-04-20 15:41 46.52120 8.43931 28085 ft 456 kts 181°
2026-04-20 15:42 46.49009 8.44346 27605 ft 452 kts 181°
2026-04-20 15:42 46.45886 8.44761 27118 ft 449 kts 181°
2026-04-20 15:42 46.42778 8.45173 26628 ft 445 kts 181°
2026-04-20 15:42 46.39710 8.45580 26140 ft 444 kts 181°
2026-04-20 15:43 46.36650 8.45985 25653 ft 440 kts 181°
2026-04-20 15:43 46.33622 8.46385 25166 ft 436 kts 180°
2026-04-20 15:43 46.30634 8.46780 24668 ft 433 kts 180°
2026-04-20 15:43 46.27653 8.47176 24175 ft 429 kts 180°
2026-04-20 15:44 46.24669 8.47579 23673 ft 428 kts 180°
2026-04-20 15:44 46.21726 8.47991 23197 ft 425 kts 180°
2026-04-20 15:44 46.18829 8.48407 22732 ft 421 kts 180°
2026-04-20 15:44 46.15930 8.48827 22242 ft 416 kts 179°
2026-04-20 15:45 46.13084 8.49344 21761 ft 413 kts 176°
2026-04-20 15:45 46.10251 8.50170 21275 ft 412 kts 170°
2026-04-20 15:45 46.07510 8.51329 20800 ft 409 kts 166°
2026-04-20 15:45 46.04864 8.52653 20334 ft 406 kts 164°
2026-04-20 15:46 46.02223 8.54074 19849 ft 402 kts 163°
2026-04-20 15:46 45.99628 8.55508 19381 ft 398 kts 163°
2026-04-20 15:46 45.97055 8.56935 18927 ft 397 kts 162°
2026-04-20 15:46 45.94409 8.58389 18472 ft 413 kts 162°
2026-04-20 15:47 45.91762 8.59927 17989 ft 411 kts 158°
2026-04-20 15:47 45.89250 8.61865 17542 ft 407 kts 150°
2026-04-20 15:47 45.86943 8.64108 17089 ft 403 kts 146°
2026-04-20 15:47 45.84735 8.66532 16639 ft 398 kts 144°
2026-04-20 15:48 45.82582 8.69040 16183 ft 393 kts 142°
2026-04-20 15:48 45.80498 8.71521 15728 ft 388 kts 142°
2026-04-20 15:48 45.78432 8.73981 15276 ft 383 kts 142°
2026-04-20 15:48 45.76344 8.76352 14802 ft 376 kts 146°
2026-04-20 15:49 45.74169 8.78373 14343 ft 364 kts 151°
2026-04-20 15:49 45.71967 8.80117 13898 ft 361 kts 154°
2026-04-20 15:49 45.69739 8.81762 13445 ft 359 kts 154°
2026-04-20 15:49 45.67522 8.83380 12990 ft 356 kts 154°
2026-04-20 15:50 45.65331 8.84995 12542 ft 354 kts 154°
2026-04-20 15:50 45.63158 8.86614 12104 ft 353 kts 154°
2026-04-20 15:50 45.60933 8.87950 11637 ft 348 kts 163°
2026-04-20 15:50 45.58617 8.88822 11175 ft 338 kts 170°
2026-04-20 15:51 45.56344 8.89421 10726 ft 328 kts 172°
2026-04-20 15:51 45.54134 8.89926 10275 ft 316 kts 173°
2026-04-20 15:51 45.52000 8.90423 9831 ft 306 kts 172°
2026-04-20 15:51 45.49941 8.90929 9427 ft 300 kts 171°
2026-04-20 15:52 45.47903 8.91455 8972 ft 301 kts 171°
2026-04-20 15:52 45.45817 8.92011 8518 ft 302 kts 171°
2026-04-20 15:52 45.43790 8.92561 8052 ft 295 kts 171°
2026-04-20 15:53 45.39837 8.93635 7366 ft 288 kts 171°
2026-04-20 15:53 45.37887 8.94161 7049 ft 286 kts 171°
2026-04-20 15:53 45.35929 8.94690 6751 ft 282 kts 170°
2026-04-20 15:53 45.34024 8.95205 6474 ft 280 kts 171°
2026-04-20 15:54 45.32113 8.95721 6182 ft 278 kts 171°
2026-04-20 15:54 45.30213 8.96233 5982 ft 274 kts 170°
2026-04-20 15:54 45.28337 8.96742 5972 ft 277 kts 170°
2026-04-20 15:54 45.26438 8.97259 5963 ft 278 kts 170°
2026-04-20 15:55 45.24538 8.97774 5964 ft 277 kts 170°
2026-04-20 15:55 45.22629 8.98292 5958 ft 278 kts 170°
2026-04-20 15:55 45.20746 8.98803 5958 ft 276 kts 170°
2026-04-20 15:55 45.18854 8.99313 5953 ft 276 kts 170°
2026-04-20 15:56 45.16966 8.99818 5953 ft 276 kts 170°
2026-04-20 15:56 45.15087 9.00319 5868 ft 277 kts 170°
2026-04-20 15:56 45.13186 9.00826 5626 ft 275 kts 170°
2026-04-20 15:56 45.11328 9.01326 5388 ft 272 kts 170°
2026-04-20 15:57 45.09448 9.01746 5142 ft 271 kts 176°
2026-04-20 15:57 45.07610 9.01511 4884 ft 269 kts 201°
2026-04-20 15:57 45.06105 9.00016 4664 ft 265 kts 233°
2026-04-20 15:57 45.05340 8.97666 4537 ft 265 kts 257°
2026-04-20 15:58 45.05015 8.95092 4409 ft 267 kts 262°
2026-04-20 15:58 45.04930 8.92507 4276 ft 265 kts 275°
2026-04-20 15:58 45.05458 8.90047 4146 ft 265 kts 303°
2026-04-20 15:58 45.06814 8.88293 4023 ft 266 kts 333°
2026-04-20 15:59 45.08553 8.87560 3966 ft 264 kts 349°
2026-04-20 15:59 45.10397 8.87118 3950 ft 265 kts 350°
2026-04-20 15:59 45.12224 8.86683 3953 ft 266 kts 349°
2026-04-20 15:59 45.14041 8.86219 3948 ft 267 kts 349°
2026-04-20 16:00 45.15861 8.85733 3953 ft 267 kts 349°
2026-04-20 16:00 45.17690 8.85235 3954 ft 268 kts 349°
2026-04-20 16:00 45.19489 8.84743 3949 ft 257 kts 349°
2026-04-20 16:00 45.21257 8.84259 3955 ft 256 kts 349°
2026-04-20 16:01 45.22972 8.83792 3954 ft 247 kts 349°
2026-04-20 16:01 45.24654 8.83335 3953 ft 247 kts 349°
2026-04-20 16:01 45.26345 8.82875 3953 ft 245 kts 349°
2026-04-20 16:01 45.28019 8.82418 3944 ft 245 kts 349°
2026-04-20 16:02 45.29691 8.81962 3816 ft 244 kts 349°
2026-04-20 16:02 45.31336 8.81513 3683 ft 238 kts 349°
2026-04-20 16:02 45.32933 8.81075 3595 ft 228 kts 349°
2026-04-20 16:02 45.34487 8.80649 3521 ft 223 kts 349°
2026-04-20 16:03 45.35990 8.80237 3448 ft 219 kts 349°
2026-04-20 16:03 45.37464 8.79857 3369 ft 210 kts 351°
2026-04-20 16:03 45.38871 8.79570 3307 ft 200 kts 353°
2026-04-20 16:03 45.40241 8.79316 3230 ft 194 kts 353°
2026-04-20 16:04 45.41568 8.79067 3168 ft 194 kts 353°
2026-04-20 16:04 45.42921 8.78805 3093 ft 195 kts 352°
2026-04-20 16:04 45.44253 8.78493 2987 ft 194 kts 349°
2026-04-20 16:04 45.45571 8.78135 2973 ft 193 kts 349°
2026-04-20 16:05 45.46875 8.77778 2980 ft 183 kts 348°
2026-04-20 16:05 45.48086 8.77449 2974 ft 172 kts 349°
2026-04-20 16:05 45.49262 8.77127 2978 ft 173 kts 349°
2026-04-20 16:05 45.50440 8.76803 2969 ft 174 kts 349°
2026-04-20 16:06 45.51637 8.76475 2679 ft 176 kts 349°
2026-04-20 16:06 45.52819 8.76152 2395 ft 167 kts 349°
2026-04-20 16:06 45.53895 8.75857 2260 ft 153 kts 349°
2026-04-20 16:06 45.54934 8.75571 1995 ft 151 kts 349°
2026-04-20 16:07 45.55959 8.75289 1813 ft 149 kts 349°
2026-04-20 16:07 45.56979 8.75010 1613 ft 149 kts 348°
2026-04-20 16:07 45.58005 8.74728 1422 ft 150 kts 348°
2026-04-20 16:07 45.59021 8.74447 1228 ft 150 kts 349°
2026-04-20 16:08 45.60041 8.74168 1027 ft 148 kts 348°
2026-04-20 16:08 45.61046 8.73895 833 ft 146 kts 348°
2026-04-20 16:08 45.62021 8.73629 709 ft 137 kts 349°
2026-04-20 16:08 45.62848 8.73399 726 ft 101 kts 349°
2026-04-20 16:09 45.63387 8.73247 737 ft 52 kts 349°
2026-04-20 16:09 45.63626 8.73159 742 ft 20 kts 339°
2026-04-20 16:09 45.63712 8.73092 745 ft 12 kts 323°
2026-04-20 16:09 45.63777 8.73000 746 ft 13 kts 308°
2026-04-20 16:10 45.63827 8.72899 748 ft 12 kts 304°
2026-04-20 16:10 45.63872 8.72804 750 ft 10 kts 304°
2026-04-20 16:10 45.63916 8.72711 751 ft 12 kts 303°
2026-04-20 16:10 45.63958 8.72608 752 ft 11 kts 286°
2026-04-20 16:11 45.63952 8.72496 753 ft 12 kts 259°
2026-04-20 16:11 45.63936 8.72375 753 ft 12 kts 258°
2026-04-20 16:11 45.63917 8.72238 754 ft 14 kts 259°
2026-04-20 16:11 45.63909 8.72099 755 ft 13 kts 269°
2026-04-20 16:12 45.63906 8.71965 756 ft 13 kts 264°
2026-04-20 16:12 45.63871 8.71850 756 ft 12 kts 218°
2026-04-20 16:12 45.63773 8.71833 754 ft 16 kts 171°
2026-04-20 16:12 45.63656 8.71866 751 ft 18 kts 169°
2026-04-20 16:13 45.63524 8.71901 747 ft 19 kts 169°
2026-04-20 16:13 45.63403 8.71934 744 ft 13 kts 169°
2026-04-20 16:13 45.63319 8.71908 743 ft 13 kts 238°
2026-04-20 16:13 45.63295 8.71776 743 ft 13 kts 259°
2026-04-20 16:14 45.63253 8.71672 742 ft 12 kts 189°
2026-04-20 16:14 45.63157 8.71691 740 ft 16 kts 170°
2026-04-20 16:14 45.63024 8.71727 737 ft 20 kts 169°
2026-04-20 16:14 45.62889 8.71766 736 ft 17 kts 169°
2026-04-20 16:15 45.62764 8.71799 734 ft 18 kts 168°
2026-04-20 16:15 45.62633 8.71837 732 ft 18 kts 169°
2026-04-20 16:15 45.62519 8.71867 730 ft 15 kts 168°
2026-04-20 16:15 45.62443 8.71889 728 ft 8 kts 169°
2026-04-20 16:16 45.62432 8.71841 728 ft 8 kts 281°
2026-04-20 16:16 45.62417 8.71790 729 ft 2 kts 276°
2026-04-20 16:16 45.62423 8.71773 729 ft 1 kts 310°
2026-04-20 16:16 45.62426 8.71769 729 ft 0 kts 323°
2026-04-20 16:17 45.62423 8.71772 729 ft 0 kts 323°